Content
SEND FEEDBACK

Daily
Averages
Monthly
Summary
Greece

MITILINI, GREECE


Home > Europe > Greece
Elevation: 16 feet     Latitude: 39 04N     Longitude: 026 36E

WEATHER
 
SELECT A DAY
Number of Records: 88,468;   Date Range: 7/9/96 - 7/21/14
 
SHARE

PRINT THIS DATA

[ ← Previous Day ]
WEATHER ALMANAC - SEPTEMBER 18, 2013
[ Next Day → ]
[ °C ]   °F
Weather ElementAverageHighLow
Temperature75.9 °F82.4 °F (2:50 pm)71 °F (3:00 am)
Dewpoint64.3 °F66.2 °F (3:50 am)60.8 °F (9:50 pm)
Humidity67 %83 % (3:50 am)48 % (3:00 pm)
Barometer29.64 in29.67 in (3:00 pm)29.62 in (4:50 am)
Wind Speed1.9 mph6.9 mph (3:00 pm)
Weather ElementAverage
Visibility7.3 mi
Wind DirectionNNE (7.8 °)

Weather ElementTotal
Precipitation---
Cooling Degree Days11.7 (Base 65)
Growing Degree Days26.7 (Base 50)
Averaged from 47 records on September 18, 2013
WEATHER CONDITIONS BREAKOUT
WIND DIRECTION BREAKOUT
WEATHER BY HOUR - SEPTEMBER 18, 2013
[ °C ]   °F
Local TimeTemperatureDewpointHumidityBarometerVisibilityWind DirectionWind SpeedGust SpeedPrecipitationEventsConditions
1:50 AM71.6 °F64.4 °F78 %29.65 in6.2 miCalmPartly Cloudy
2:50 AM71.6 °F64.4 °F78 %29.65 in6.2 miCalmPartly Cloudy
3:00 AM71.0 °F65.0 °F76 %29.66 in9.0 miCalmScattered Clouds
3:50 AM71.6 °F66.2 °F83 %29.65 in6.2 miVariable3.5 mphScattered Clouds
4:20 AM71.6 °F66.2 °F83 %29.65 in6.2 miVariable3.5 mphScattered Clouds
4:50 AM71.6 °F64.4 °F78 %29.62 in6.2 miVariable2.3 mphScattered Clouds
5:20 AM71.6 °F64.4 °F78 %29.62 inNorthScattered Clouds
5:50 AM71.6 °F64.4 °F78 %29.62 inNorthScattered Clouds
6:20 AM71.6 °F64.4 °F78 %29.62 inNorthScattered Clouds
6:50 AM71.6 °F64.4 °F78 %29.62 in6.2 miVariable2.3 mphScattered Clouds
7:20 AM71.6 °F64.4 °F78 %29.62 in6.2 miVariable2.3 mphScattered Clouds
7:50 AM71.6 °F64.4 °F78 %29.62 in6.2 miVariable3.5 mphScattered Clouds
8:20 AM71.6 °F64.4 °F78 %29.65 inNorthScattered Clouds
8:50 AM71.6 °F64.4 °F78 %29.65 inNorthScattered Clouds
9:00 AM72.0 °F64.0 °F68 %29.66 in9.0 miSSE (160°)5.8 mphPartly Cloudy
9:20 AM73.4 °F64.4 °F73 %29.65 inNorthScattered Clouds
9:50 AM75.2 °F64.4 °F69 %29.65 inNorthScattered Clouds
10:20 AM77.0 °F66.2 °F69 %29.65 inNorthScattered Clouds
10:50 AM77.0 °F66.2 °F69 %29.65 inNorthScattered Clouds
11:20 AM77.0 °F66.2 °F69 %29.65 inNorthPartly Cloudy
11:50 AM77.0 °F66.2 °F69 %29.65 inNorthScattered Clouds
12:20 PM77.0 °F66.2 °F69 %29.65 inNorthScattered Clouds
12:50 PM78.8 °F66.2 °F65 %29.65 inNorthScattered Clouds
1:20 PM78.8 °F66.2 °F65 %29.65 inNorthScattered Clouds
1:50 PM80.6 °F66.2 °F61 %29.65 inNorthScattered Clouds
2:20 PM80.6 °F66.2 °F61 %29.65 inNorthScattered Clouds
2:50 PM82.4 °F66.2 °F58 %29.65 inNorthScattered Clouds
3:00 PM82.0 °F65.0 °F48 %29.67 in12.0 miSouth (190°)6.9 mphPartly Cloudy
3:20 PM82.4 °F66.2 °F58 %29.65 inNorthPartly Cloudy
3:50 PM80.6 °F62.6 °F54 %29.62 inNorthScattered Clouds
4:20 PM80.6 °F62.6 °F54 %29.62 inNorthPartly Cloudy
4:50 PM82.4 °F62.6 °F51 %29.62 inNorthPartly Cloudy
5:20 PM82.4 °F62.6 °F51 %29.62 inNorthPartly Cloudy
5:50 PM78.8 °F64.4 °F61 %29.62 inNorthScattered Clouds
6:20 PM78.8 °F64.4 °F61 %29.62 inNorthScattered Clouds
6:50 PM78.8 °F62.6 °F57 %29.62 inNorthScattered Clouds
7:20 PM78.8 °F62.6 °F57 %29.65 inNorthScattered Clouds
7:50 PM77.0 °F64.4 °F65 %29.65 in6.2 miCalmPartly Cloudy
8:20 PM77.0 °F64.4 °F65 %29.65 in6.2 miCalmPartly Cloudy
8:50 PM75.2 °F62.6 °F65 %29.65 in6.2 miCalmPartly Cloudy
9:00 PM75.0 °F63.0 °F57 %29.67 in12.0 miCalmScattered Clouds
9:20 PM75.2 °F62.6 °F65 %29.65 in6.2 miCalmPartly Cloudy
9:50 PM75.2 °F60.8 °F61 %29.65 inNorthPartly Cloudy
10:20 PM75.2 °F60.8 °F61 %29.65 inNorthPartly Cloudy
10:50 PM75.2 °F62.6 °F65 %29.65 inNorthPartly Cloudy
11:20 PM75.2 °F62.6 °F65 %29.65 inNorthPartly Cloudy
11:50 PM75.2 °F62.6 °F65 %29.65 inNorthPartly Cloudy
Hourly data recorded from LGMT, located miles away from Mitilini, Greece







STORIES FROM OUR PARTNERS